Wetbulb
59.07 59.31 59.27 59.12 58.92 59.00 59.16 59.18 59.16 59.25 59.61 59.69 59.94 59.71 59.47 59.82 58.99 57.14 53.72 57.26 59.67 67.31 64.70 54.19 54.15 52.80 51.95 50.80 52.72 48.67 42.26 39.82 42.36 50.31 51.05 58.14 55.93 59.62 62.61 61.87 63.10 65.26 64.94 66.66 68.15
58.89 59.21 59.16 59.05 58.99 58.72 58.63 58.65 58.96 59.05 59.17 59.53 59.50 59.38 58.98 59.37 55.97 54.44 62.62 67.52 67.24 68.31 52.99 51.77 49.87 50.28 47.93 46.42 48.29 45.93 41.82 44.06 47.08 52.52 58.56 58.58 58.55 58.91 59.51 58.87 59.75 63.41 66.23 66.97 66.80
58.61 58.90 58.94 58.82 58.99 58.41 58.30 58.43 58.59 58.79 59.11 59.38 59.17 58.75 59.15 58.53 55.11 56.60 68.22 68.08 69.46 64.97 52.79 51.58 51.07 49.90 45.83 46.08 47.35 46.72 45.34 49.20 60.09 62.49 62.21 60.53 60.89 61.34 57.42 56.61 61.45 61.30 63.41 64.54 63.65
58.38 58.82 58.87 58.63 58.67 58.37 58.06 58.22 58.40 58.84 58.91 58.76 58.64 58.76 59.17 56.28 46.77 55.24 69.87 69.65 68.89 58.75 51.35 50.32 49.65 45.61 44.65 45.09 48.22 45.46 49.93 50.05 60.44 63.42 62.61 60.04 61.22 59.49 60.64 60.45 63.12 64.59 65.60 64.31 62.81
58.07 58.42 58.43 58.23 58.25 57.82 57.74 57.90 57.95 58.11 58.23 58.30 58.75 59.65 56.95 52.93 53.62 63.26 69.75 67.74 60.06 54.06 50.84 50.04 47.55 45.96 46.85 46.95 48.43 45.03 48.12 58.29 62.73 62.90 61.77 63.21 59.88 58.75 58.91 62.20 63.48 62.85 62.24 61.14 60.81
57.65 57.85 57.83 57.81 57.69 57.56 57.30 57.10 57.05 57.04 57.68 58.43 59.49 59.66 54.94 46.63 56.96 64.18 58.31 57.90 56.09 52.26 50.85 49.90 49.14 49.07 46.13 45.74 44.80 47.48 48.90 58.68 58.13 58.00 57.42 55.96 56.39 59.13 59.65 61.52 61.08 60.96 60.28 60.99 61.13
57.48 57.36 57.44 57.39 57.39 57.37 57.04 56.82 56.28 56.80 57.96 58.66 60.81 58.89 55.21 53.01 57.85 61.20 58.18 55.01 54.56 54.25 51.64 52.36 51.23 49.31 49.01 47.54 47.73 48.00 48.01 55.43 57.19 54.60 54.35 56.90 54.14 53.99 61.63 61.56 59.40 59.50 60.32 60.84 61.16
57.38 57.02 57.04 57.23 57.17 57.05 57.12 56.70 56.27 57.36 58.25 59.20 60.79 56.84 50.98 58.41 57.79 57.25 57.30 55.84 55.86 54.97 53.79 54.13 51.96 49.42 47.65 47.86 48.37 45.82 43.96 41.23 53.59 55.65 55.15 55.40 49.20 55.50 59.70 60.19 58.71 59.21 59.77 60.02 60.21
57.18 56.83 56.89 57.09 56.94 56.97 56.30 55.76 57.37 59.65 59.00 60.29 56.82 55.16 52.38 61.53 54.67 55.88 55.07 54.26 54.21 54.47 53.15 56.21 50.94 47.88 48.37 43.46 41.99 42.80 39.67 43.52 52.41 56.18 55.28 53.76 50.81 56.10 58.77 58.04 58.43 57.68 58.96 59.44 59.34
57.32 56.67 56.43 56.50 56.59 56.26 55.27 55.68 57.45 58.57 59.17 59.81 59.57 51.45 54.06 55.54 54.51 54.01 53.77 55.36 52.98 52.68 51.85 50.00 46.74 44.11 42.54 41.64 37.76 40.47 40.74 42.23 50.31 53.08 54.11 52.50 52.54 55.01 58.36 57.15 57.00 57.11 57.76 58.65 58.77
57.34 56.67 56.24 56.19 56.12 55.36 53.16 51.08 47.90 47.58 50.58 48.39 51.96 52.19 54.13 57.46 59.43 54.27 54.42 53.64 53.81 52.42 46.50 47.72 43.55 41.61 43.65 44.21 45.37 45.00 44.26 47.91 52.18 55.36 53.11 52.75 53.06 55.65 57.17 57.62 57.24 58.34 56.32 57.53 58.31
56.95 56.78 56.47 56.10 55.68 55.10 51.37 48.13 48.42 49.20 44.19 52.81 52.04 52.28 55.20 56.39 53.47 54.68 55.78 51.55 50.54 46.65 49.18 45.83 42.34 47.47 48.01 48.22 47.43 47.08 48.64 49.75 53.73 55.64 53.30 51.94 52.10 54.51 56.25 57.16 57.95 57.69 55.55 56.94 58.37
55.85 56.05 56.09 55.75 55.12 52.10 50.32 50.86 52.51 51.34 44.51 50.60 52.64 51.08 51.77 53.89 52.63 53.95 53.52 51.75 49.23 46.64 46.41 44.06 46.99 51.28 49.95 47.83 46.71 45.78 46.74 49.19 51.09 52.78 53.18 50.89 47.89 51.15 53.47 57.39 58.13 59.27 58.36 59.59 60.05
55.73 55.75 55.59 55.00 50.42 50.10 49.84 53.62 53.43 51.11 41.36 48.05 49.73 50.54 51.55 53.24 52.04 56.85 55.94 52.75 49.05 46.71 47.01 45.87 50.25 50.06 49.24 48.10 48.67 43.87 50.31 54.03 51.33 47.79 43.77 51.34 39.65 47.83 50.63 52.39 54.89 57.96 58.81 59.17 60.45
55.53 55.87 55.45 54.66 48.86 47.77 52.74 53.52 53.67 51.78 36.23 51.66 49.47 51.34 50.98 50.97 51.97 53.18 56.79 53.29 47.46 48.50 47.73 46.40 48.84 48.58 47.96 49.00 49.79 47.84 51.05 48.59 51.63 45.66 47.37 48.19 46.48 46.62 51.38 50.15 50.89 56.45 59.06 60.43 60.41
55.63 55.71 54.86 51.77 48.61 51.78 53.72 53.74 51.56 42.57 36.56 49.68 48.72 48.03 47.11 50.28 51.65 53.07 53.75 53.75 52.71 48.52 48.23 48.13 51.27 50.04 50.32 51.68 50.58 51.39 48.38 46.89 45.49 42.48 42.14 46.46 46.42 46.60 48.49 51.04 52.23 56.04 59.31 58.63 58.77
55.51 55.61 53.75 53.86 46.43 50.56 52.69 50.97 41.87 39.00 51.12 47.36 46.51 47.12 46.78 47.97 49.32 50.73 49.66 47.46 45.12 42.12 42.46 47.39 48.31 50.31 52.21 47.83 49.51 48.03 42.25 36.77 37.30 39.57 40.11 48.26 45.93 46.46 53.68 55.02 54.53 56.53 58.22 57.65 52.64
54.13 53.46 51.80 53.18 50.66 51.40 50.60 46.42 34.47 48.11 49.73 53.46 49.18 47.32 45.65 47.55 48.18 49.99 47.87 44.97 47.39 45.78 42.93 41.61 42.66 48.24 51.34 47.65 45.26 46.74 44.04 38.32 33.91 35.21 40.96 48.28 44.03 48.97 56.78 57.89 57.85 58.80 54.59 51.54 50.52
52.26 49.69 50.08 52.73 54.12 51.52 46.87 38.69 42.45 46.93 50.73 50.70 48.90 43.71 43.53 47.72 48.14 48.34 47.34 46.39 47.33 47.01 42.50 44.90 46.74 50.16 51.15 50.75 49.09 46.00 43.39 46.40 40.68 42.64 41.13 43.15 47.26 54.07 56.71 56.24 56.73 51.11 50.36 49.07 48.81
50.28 47.50 47.94 52.71 55.08 50.77 43.90 39.93 46.21 51.95 51.39 51.46 45.37 46.06 41.55 44.90 45.52 45.31 46.31 48.97 49.14 50.32 49.72 49.76 44.65 50.35 51.09 50.75 49.86 47.24 49.41 43.57 40.14 33.95 36.98 44.75 45.65 45.90 52.06 52.07 48.44 47.53 47.70 48.32 48.34
47.37 45.69 52.36 54.86 54.98 47.09 38.55 42.21 47.51 52.55 52.72 49.44 47.38 47.31 47.08 45.71 46.52 46.10 47.77 51.63 53.15 52.59 50.40 48.00 47.56 48.32 49.91 47.25 45.26 45.74 44.36 44.74 42.34 41.14 38.55 38.17 43.31 51.38 50.71 46.72 46.21 46.50 47.49 47.23 47.19
46.65 41.97 53.30 54.78 44.76 42.46 40.84 47.19 50.30 51.59 53.77 51.49 52.13 50.99 49.42 49.48 46.78 49.74 50.12 52.12 55.12 55.26 49.80 49.45 45.95 44.54 45.85 50.35 50.48 48.21 45.70 43.26 38.59 37.65 41.03 41.10 42.59 51.35 48.76 48.20 47.72 47.04 47.59 47.11 47.53
45.39 46.45 54.16 53.18 40.78 40.26 43.70 48.13 50.63 51.19 51.54 50.61 49.67 53.52 52.81 49.62 46.98 51.33 51.32 54.64 55.01 53.10 49.31 50.38 44.84 40.82 44.38 47.48 49.80 46.07 46.92 46.16 42.92 41.43 41.68 39.70 40.72 49.87 48.45 46.73 47.75 46.72 47.47 47.26 47.35
44.94 41.95 46.45 49.03 47.26 44.21 42.46 44.94 48.79 54.68 50.08 50.72 49.61 51.79 51.11 49.60 50.50 48.68 50.65 52.85 53.54 53.65 56.97 53.10 44.94 43.16 40.72 45.06 46.56 45.60 47.69 46.81 43.22 39.36 41.31 41.80 42.00 43.97 45.68 45.37 46.39 46.40 46.38 46.38 46.94
44.69 43.38 45.80 41.31 44.61 45.03 43.79 45.64 45.42 47.98 52.16 50.77 50.23 51.92 51.37 46.90 49.62 48.55 50.35 50.51 53.29 56.50 53.13 49.21 43.43 44.92 46.19 49.20 48.53 47.77 46.64 47.23 44.80 45.31 41.04 43.20 42.38 42.62 45.01 45.60 45.92 46.39 47.55 47.63 47.20
43.32 43.15 46.34 45.01 45.73 46.27 44.07 43.58 45.45 48.51 50.23 49.24 49.05 51.44 50.93 48.96 50.45 47.91 50.07 48.79 49.35 53.16 48.57 49.09 43.71 44.48 43.30 48.50 48.37 45.93 48.28 48.04 47.23 46.53 45.30 44.43 41.04 45.81 46.95 46.97 45.62 45.47 47.03 46.56 46.98
47.28 48.56 47.75 44.98 44.54 42.79 43.51 45.02 48.84 50.92 51.88 52.62 53.24 52.03 50.60 52.29 55.10 53.35 51.79 51.70 51.70 49.49 48.04 47.26 43.21 42.18 38.99 46.96 46.95 42.17 45.26 46.40 46.16 46.51 44.93 39.38 42.25 46.27 44.93 45.26 43.83 44.75 46.51 46.60 48.22
MSLP
1019.81 1019.37 1018.84 1018.03 1017.41 1016.85 1016.50 1015.79 1015.16 1014.51 1014.13 1013.79 1013.12 1012.43 1012.12 1011.80 1011.28 1011.18 1009.89 1007.49 1007.20 1007.48 1007.80 1008.15 1008.60 1008.83 1009.05 1009.13 1009.04 1009.23 1010.27 1010.31 1009.67 1009.19 1010.69 1011.58 1011.07 1011.50 1012.25 1012.36 1012.59 1012.56 1013.22 1013.54 1013.64
1019.78 1019.26 1018.50 1017.90 1017.21 1016.63 1016.17 1015.61 1014.99 1014.30 1013.89 1013.55 1012.78 1012.29 1012.03 1011.72 1011.28 1009.68 1006.66 1006.53 1006.65 1007.36 1007.83 1007.98 1008.46 1008.89 1009.01 1008.88 1008.53 1008.99 1009.83 1009.15 1009.03 1009.09 1010.25 1011.49 1011.14 1012.07 1013.23 1013.48 1013.53 1013.42 1013.59 1014.02 1014.11
1019.49 1018.80 1018.40 1017.82 1017.11 1016.53 1015.84 1015.38 1014.66 1014.00 1013.66 1013.16 1012.47 1012.07 1011.93 1011.69 1010.67 1007.46 1005.64 1006.19 1006.83 1007.12 1007.43 1007.57 1008.06 1008.72 1008.68 1008.07 1007.93 1008.20 1008.44 1008.91 1009.51 1008.64 1009.02 1010.51 1011.35 1012.42 1013.51 1014.85 1014.81 1014.73 1014.89 1014.91 1015.26
1019.19 1018.61 1017.99 1017.62 1017.12 1016.41 1015.53 1014.91 1014.41 1013.77 1013.34 1012.78 1012.34 1011.90 1011.74 1011.70 1009.44 1006.30 1005.88 1006.24 1006.65 1007.16 1007.60 1007.52 1007.85 1008.32 1008.18 1007.74 1007.41 1007.55 1007.38 1008.04 1009.06 1008.33 1008.90 1010.72 1012.48 1013.78 1013.04 1014.61 1014.77 1015.40 1015.93 1016.38 1016.40
1019.56 1018.97 1018.32 1017.69 1017.15 1016.37 1015.50 1014.57 1013.97 1013.56 1013.07 1012.51 1012.04 1011.72 1011.75 1010.64 1007.85 1005.85 1006.04 1006.48 1006.97 1007.29 1007.48 1007.53 1007.48 1007.79 1007.85 1007.34 1006.93 1006.93 1007.01 1007.86 1008.20 1008.45 1009.75 1010.86 1012.41 1013.99 1014.33 1014.86 1014.43 1015.37 1016.14 1016.80 1016.88
1019.76 1019.30 1018.73 1017.99 1017.13 1016.04 1015.18 1014.32 1013.52 1012.86 1012.46 1012.18 1011.77 1011.86 1011.56 1009.15 1005.87 1005.82 1006.17 1006.72 1006.93 1006.95 1007.13 1007.25 1006.79 1007.20 1007.33 1007.21 1007.00 1007.01 1007.38 1008.23 1009.28 1009.60 1010.26 1010.48 1012.45 1013.30 1015.64 1015.19 1015.26 1015.77 1016.80 1017.22 1017.17
1019.63 1019.11 1018.44 1017.51 1016.42 1015.42 1014.18 1013.33 1012.70 1012.19 1011.99 1011.78 1011.64 1011.77 1010.65 1007.33 1005.68 1005.90 1006.25 1006.38 1006.23 1006.34 1006.46 1006.17 1006.38 1006.93 1006.72 1006.80 1006.63 1006.93 1008.18 1009.06 1009.88 1010.12 1010.70 1010.50 1013.20 1014.51 1015.67 1015.53 1014.92 1015.70 1016.79 1017.43 1017.75
1019.35 1018.71 1017.92 1016.91 1015.75 1014.52 1013.73 1012.60 1011.64 1011.40 1011.45 1011.44 1011.54 1011.36 1009.09 1005.94 1005.86 1006.17 1006.36 1006.16 1005.93 1005.97 1006.27 1005.80 1006.14 1006.34 1006.62 1006.78 1006.72 1007.05 1007.83 1009.77 1010.43 1010.84 1010.65 1011.41 1014.15 1014.88 1015.05 1014.90 1015.62 1015.01 1016.35 1017.00 1017.78
1019.00 1018.39 1017.71 1016.89 1015.85 1014.66 1013.29 1012.27 1011.38 1010.66 1011.03 1011.24 1011.37 1010.86 1007.86 1005.64 1006.17 1005.52 1005.75 1005.86 1005.88 1005.94 1005.94 1005.70 1005.91 1006.62 1006.85 1007.66 1007.98 1008.20 1008.61 1010.01 1010.66 1011.04 1011.13 1012.09 1014.31 1014.32 1014.27 1014.65 1015.38 1015.23 1016.19 1016.38 1017.51
1018.69 1018.06 1017.39 1016.74 1015.73 1014.74 1013.29 1011.64 1011.03 1011.07 1011.16 1010.92 1010.41 1010.18 1007.27 1005.78 1005.35 1005.33 1005.23 1005.38 1005.89 1005.92 1005.95 1006.01 1006.69 1007.23 1007.75 1008.41 1008.79 1008.48 1009.13 1009.56 1011.20 1012.65 1012.54 1013.41 1014.63 1013.92 1015.61 1014.95 1015.39 1015.53 1016.24 1016.68 1017.44
1018.59 1017.97 1017.28 1016.55 1015.55 1014.71 1013.94 1011.94 1012.17 1011.54 1010.92 1010.60 1009.61 1008.77 1007.16 1005.58 1004.62 1004.84 1005.03 1005.62 1005.94 1006.21 1006.61 1006.57 1007.44 1007.37 1007.17 1007.62 1007.46 1007.81 1009.25 1009.75 1011.58 1011.93 1013.11 1015.41 1015.32 1015.25 1015.58 1015.58 1015.93 1016.09 1016.68 1016.91 1017.21
1018.68 1018.00 1017.27 1016.44 1015.38 1014.55 1014.15 1013.65 1013.63 1013.50 1011.59 1009.14 1008.24 1007.80 1006.47 1006.04 1005.36 1004.68 1004.76 1005.70 1005.98 1006.49 1006.63 1007.11 1006.97 1006.22 1006.44 1006.61 1006.96 1007.08 1008.73 1010.41 1011.78 1012.62 1013.69 1016.04 1016.23 1016.41 1016.27 1016.52 1016.45 1016.42 1016.94 1017.00 1017.24
1018.86 1018.31 1017.54 1016.49 1015.15 1014.40 1014.69 1013.69 1013.00 1012.74 1012.20 1008.33 1006.93 1006.24 1005.51 1005.34 1005.14 1004.55 1004.80 1005.33 1005.84 1006.23 1006.62 1006.93 1005.37 1005.37 1005.86 1005.46 1005.93 1006.27 1006.98 1009.21 1011.15 1013.65 1015.13 1015.90 1017.67 1017.68 1017.30 1017.21 1017.10 1017.01 1016.94 1017.26 1017.59
1018.89 1018.44 1017.83 1016.87 1015.16 1015.60 1014.35 1013.09 1012.69 1012.91 1012.22 1007.98 1005.95 1004.66 1004.73 1004.79 1004.64 1003.99 1004.26 1005.03 1005.51 1006.04 1006.49 1006.25 1004.76 1004.82 1004.41 1004.59 1003.98 1004.89 1005.58 1007.41 1010.24 1012.22 1014.38 1014.96 1017.69 1018.16 1017.81 1017.81 1017.86 1017.65 1017.61 1017.73 1017.78
1018.83 1018.50 1018.00 1017.91 1017.30 1016.08 1013.84 1012.97 1012.90 1012.83 1010.86 1006.20 1005.03 1003.67 1004.07 1004.56 1004.13 1003.40 1003.73 1004.52 1005.27 1005.79 1006.05 1005.51 1004.64 1003.84 1003.48 1003.10 1002.99 1003.98 1004.46 1005.95 1008.79 1010.41 1012.09 1015.25 1016.11 1017.81 1017.96 1017.88 1018.01 1018.20 1018.10 1018.32 1018.45
1018.59 1018.37 1018.00 1017.54 1017.45 1014.82 1013.78 1013.37 1013.12 1012.59 1008.85 1005.60 1004.30 1004.06 1004.53 1004.46 1004.07 1003.59 1003.66 1004.24 1004.66 1005.61 1005.62 1004.83 1003.72 1003.47 1002.14 1002.16 1002.48 1003.26 1004.53 1006.02 1008.02 1009.87 1013.25 1014.63 1015.37 1017.29 1018.02 1017.65 1017.78 1018.06 1017.93 1018.32 1018.44
1018.18 1017.91 1018.10 1017.36 1015.69 1013.87 1013.97 1013.84 1013.29 1010.86 1007.08 1005.61 1004.80 1004.44 1004.54 1004.57 1004.23 1003.84 1003.98 1004.41 1005.14 1005.65 1005.55 1004.42 1003.02 1002.01 1001.59 1002.28 1002.84 1003.83 1006.00 1007.93 1009.74 1011.88 1014.33 1014.79 1015.62 1017.20 1016.77 1016.97 1017.13 1017.76 1017.92 1018.58 1019.79
1017.70 1017.09 1016.06 1015.13 1014.31 1014.57 1014.60 1014.08 1012.18 1008.83 1007.32 1005.53 1004.51 1004.73 1004.67 1004.34 1003.94 1003.71 1004.06 1004.43 1004.77 1005.30 1005.44 1004.68 1003.35 1002.24 1001.71 1002.27 1003.24 1004.44 1006.10 1008.34 1010.50 1013.00 1014.63 1015.10 1016.76 1017.12 1017.04 1016.94 1017.06 1017.58 1019.17 1020.07 1020.91
1017.41 1016.42 1015.68 1012.95 1013.47 1014.64 1014.91 1013.90 1011.13 1009.00 1007.24 1005.89 1004.54 1005.02 1004.71 1004.21 1004.02 1003.85 1003.91 1004.06 1004.25 1004.57 1005.07 1004.45 1003.32 1002.18 1001.76 1002.35 1003.20 1004.61 1006.13 1007.45 1010.28 1012.95 1014.94 1016.56 1017.43 1017.29 1017.31 1017.54 1017.89 1019.33 1020.21 1021.14 1021.44
1018.18 1017.12 1014.61 1011.66 1012.59 1014.02 1014.49 1013.36 1010.58 1008.33 1007.10 1005.85 1005.42 1004.91 1004.81 1004.15 1004.14 1003.74 1003.65 1003.13 1003.41 1003.63 1003.76 1004.18 1003.97 1002.93 1002.53 1002.62 1003.53 1004.49 1005.96 1007.93 1010.45 1013.24 1015.66 1016.50 1016.74 1016.96 1017.35 1017.87 1019.19 1020.33 1021.14 1021.90 1022.23
1018.36 1017.11 1012.12 1011.27 1012.28 1014.01 1014.16 1012.44 1009.94 1007.96 1006.95 1006.19 1005.56 1005.22 1004.79 1004.21 1003.71 1003.50 1003.27 1002.79 1002.68 1003.08 1003.32 1003.95 1004.67 1004.72 1003.92 1004.43 1004.81 1005.64 1006.85 1008.81 1010.89 1012.96 1015.01 1016.43 1016.68 1016.30 1017.08 1018.43 1019.84 1021.00 1021.77 1022.30 1022.70
1018.14 1016.63 1011.86 1011.48 1013.00 1013.70 1013.41 1011.53 1009.53 1008.00 1006.88 1006.24 1005.42 1005.12 1004.81 1004.18 1003.55 1003.51 1003.22 1002.98 1002.87 1002.97 1004.07 1004.76 1005.58 1006.09 1006.12 1005.75 1005.41 1006.22 1007.77 1009.35 1011.72 1013.64 1015.18 1016.20 1017.64 1017.35 1017.94 1019.17 1020.12 1021.41 1022.19 1022.72 1023.10
1018.09 1015.90 1012.12 1012.12 1013.16 1013.71 1012.60 1011.40 1009.86 1008.09 1006.84 1006.06 1005.72 1005.20 1004.70 1004.11 1003.80 1003.34 1003.33 1003.44 1003.14 1003.63 1004.49 1005.13 1006.42 1007.25 1007.16 1007.06 1006.47 1007.45 1008.34 1009.49 1011.33 1013.04 1015.26 1016.60 1018.47 1018.63 1018.96 1019.92 1020.92 1021.62 1022.54 1023.10 1023.44
1018.29 1016.40 1013.72 1012.76 1012.83 1012.87 1012.67 1011.32 1009.75 1007.37 1006.57 1006.12 1005.57 1005.05 1004.79 1003.90 1003.41 1003.62 1003.88 1003.92 1003.95 1004.30 1004.90 1005.16 1007.13 1007.58 1007.93 1007.64 1007.74 1008.77 1009.38 1010.13 1011.51 1013.76 1015.74 1016.68 1018.15 1019.29 1019.80 1020.59 1021.66 1022.29 1022.76 1023.24 1023.58
1018.12 1016.63 1014.87 1013.88 1013.35 1012.91 1012.50 1011.22 1009.82 1008.73 1006.86 1006.14 1005.43 1005.08 1005.31 1004.71 1004.19 1004.16 1004.21 1004.58 1004.69 1004.92 1005.38 1006.13 1007.77 1007.77 1007.80 1007.71 1008.21 1009.17 1010.05 1010.82 1012.19 1013.93 1015.25 1017.49 1018.40 1019.47 1020.16 1020.88 1021.76 1022.30 1022.92 1023.29 1023.74
1018.24 1017.00 1015.56 1014.67 1013.51 1012.72 1011.85 1010.90 1009.89 1008.81 1007.68 1006.45 1006.16 1005.27 1005.12 1005.08 1004.61 1004.23 1004.32 1004.67 1005.15 1005.67 1006.27 1007.24 1008.41 1008.48 1009.07 1008.61 1008.87 1009.90 1010.67 1011.61 1012.71 1014.38 1015.90 1017.37 1019.00 1019.80 1020.69 1021.25 1022.01 1022.53 1022.96 1023.39 1023.79
1017.51 1016.76 1016.33 1014.60 1013.51 1012.49 1011.52 1009.98 1009.10 1008.20 1006.89 1006.29 1006.38 1005.46 1004.92 1004.10 1003.57 1003.55 1004.19 1004.44 1005.07 1005.94 1006.99 1007.86 1008.79 1009.77 1010.12 1009.40 1009.61 1010.73 1011.22 1011.88 1013.35 1014.47 1015.52 1017.46 1018.68 1020.22 1021.27 1021.88 1022.42 1022.89 1023.18 1023.52 1023.87
Wind_Speed
14 15 15 17 18 18 19 21 21 21 20 19 18 16 15 14 17 3 5 11 7 12 4 4 3 3 2 3 5 4 4 5 4 9 8 6 4 8 11 11 7 6 6 4 6
14 15 17 19 20 21 21 20 21 21 20 19 17 15 13 11 4 6 12 8 10 15 5 5 1 4 3 4 2 5 5 5 2 9 20 10 13 9 9 10 7 8 13 14 8
15 17 17 19 21 22 22 20 22 21 20 18 16 14 10 6 3 7 6 11 7 9 3 4 4 3 4 3 4 4 2 6 8 22 31 31 25 10 18 10 6 7 6 7 10
18 20 21 21 23 23 23 22 22 22 20 17 14 11 7 3 2 3 4 9 10 6 1 4 5 1 3 3 3 3 8 11 11 17 21 33 26 23 25 14 14 7 2 2 1
16 19 21 22 22 23 23 23 22 20 18 15 12 7 2 2 8 3 8 6 5 6 3 2 3 3 2 5 8 1 3 7 13 19 18 26 27 19 20 17 18 16 12 11 12
14 17 19 21 22 24 23 23 22 20 16 13 9 2 3 3 2 8 8 5 4 4 2 7 4 4 3 3 3 3 4 12 2 10 10 20 11 17 8 12 17 15 14 13 16
15 16 18 21 24 24 26 24 23 20 15 12 5 3 2 12 1 7 8 5 4 5 2 5 1 4 1 8 3 2 7 7 8 2 9 7 9 10 6 10 18 21 15 14 15
15 17 20 23 26 29 27 29 28 22 12 8 5 1 7 4 6 3 3 5 6 5 3 11 4 3 2 2 9 6 5 6 5 2 2 7 2 6 3 8 14 20 16 16 12
16 18 20 22 26 29 30 29 25 9 6 8 2 1 9 5 6 8 7 6 1 5 6 11 3 2 6 4 7 7 3 9 2 7 3 4 4 7 9 10 8 11 15 17 12
17 19 21 23 26 27 32 27 8 2 3 5 3 2 4 2 3 6 6 5 5 6 5 3 5 1 3 6 5 5 3 3 7 6 11 11 3 11 6 7 3 11 7 12 11
19 20 22 24 27 27 17 7 9 6 5 5 10 6 14 7 3 4 6 5 3 3 6 4 2 8 11 8 8 7 3 1 11 18 10 1 2 7 9 4 2 5 3 9 9
18 20 23 26 28 28 2 5 3 7 12 10 15 10 14 6 4 6 6 4 4 5 1 5 8 13 7 9 9 12 6 5 9 9 10 5 7 9 7 4 4 5 4 8 6
16 18 21 26 31 5 3 3 5 4 4 11 7 6 6 8 7 8 9 6 4 3 5 6 12 4 5 13 11 6 9 10 12 17 14 17 5 5 5 6 3 8 5 5 5
15 16 18 25 5 6 5 6 8 0 3 9 4 8 5 5 5 8 7 8 4 7 3 7 14 12 13 11 5 4 4 19 22 9 8 8 3 4 4 3 2 6 5 3 5
14 15 14 3 5 5 8 8 9 5 5 1 3 2 7 9 3 4 7 4 6 7 4 10 12 11 7 6 3 6 1 6 19 10 9 4 6 2 2 4 3 2 3 1 7
14 14 12 2 2 11 9 12 3 4 6 3 6 5 5 3 4 4 6 5 5 7 6 14 7 6 5 2 2 0 4 8 5 4 7 5 4 3 4 6 5 5 4 6 6
16 15 8 2 7 3 8 4 4 3 6 2 4 5 5 6 5 5 5 7 7 3 2 7 4 3 6 4 8 9 8 4 6 8 3 4 8 3 2 7 8 6 8 4 14
18 21 8 8 6 2 5 4 2 6 8 13 7 5 6 5 5 2 5 5 3 4 1 2 8 4 2 6 5 2 8 7 2 5 4 8 4 3 2 7 11 10 16 14 10
16 4 5 7 9 4 5 3 5 5 8 10 3 5 4 5 3 6 9 7 8 8 5 2 6 2 6 3 8 1 2 6 9 5 6 3 2 2 6 7 7 18 16 11 8
5 5 7 4 10 5 5 5 5 3 8 5 6 1 6 5 5 3 6 7 4 11 7 6 2 2 1 7 6 6 2 6 5 5 4 4 3 6 11 10 16 15 14 9 6
3 5 7 7 7 5 3 7 7 9 7 5 3 2 2 4 8 3 4 3 4 1 5 3 4 7 6 4 3 6 4 7 7 5 6 4 2 4 10 16 16 11 10 8 7
1 3 5 3 4 1 3 5 6 10 16 8 3 4 3 5 4 2 1 1 1 1 4 3 5 4 4 6 3 6 4 5 7 2 4 5 3 8 15 16 16 12 8 7 8
2 5 6 6 3 3 5 6 9 10 7 4 4 1 4 4 1 4 4 6 4 5 3 1 3 4 8 8 8 7 4 6 6 4 1 6 5 6 13 13 11 13 9 8 7
1 3 5 3 2 4 1 7 5 8 6 5 6 5 4 5 2 4 3 6 5 4 4 9 3 8 7 7 4 6 9 6 7 5 3 2 14 6 9 15 11 10 8 7 7
1 5 3 3 5 5 5 4 5 6 3 3 4 4 1 3 1 4 4 3 5 5 4 6 3 3 3 10 10 10 12 10 8 7 6 10 10 7 10 13 10 9 10 9 8
1 2 5 4 5 5 7 7 9 7 5 7 4 8 3 4 3 7 8 3 3 5 4 4 1 3 5 8 13 10 16 18 16 13 12 13 7 6 7 8 8 8 9 8 9
3 4 2 5 5 2 2 8 7 2 6 7 6 3 6 7 10 11 3 4 8 6 3 4 4 4 2 9 8 7 2 9 6 5 15 7 8 8 6 8 7 7 7 8 10
Wind_Direction
340 332 328 332 330 327 325 324 322 320 317 312 313 320 320 323 309 153 240 218 190 153 139 116 181 53 70 264 195 127 42 296 288 74 100 129 67 19 49 86 39 8 36 8 38
333 333 336 331 331 329 325 322 317 317 317 313 318 317 323 335 282 246 240 240 221 141 139 123 49 59 325 254 241 113 121 251 225 124 90 132 109 119 98 89 72 40 36 27 349
338 339 335 331 331 323 320 320 315 316 316 315 321 321 319 335 318 253 228 171 138 158 149 128 105 145 212 183 220 172 204 127 84 94 91 85 72 110 104 73 48 90 72 43 28
341 337 334 331 322 319 318 317 314 315 316 319 316 318 329 279 276 296 112 131 152 142 48 79 68 90 258 287 173 321 224 142 169 108 100 92 98 81 91 106 92 116 112 48 85
333 331 325 321 316 315 313 314 312 310 312 316 314 328 334 287 251 181 137 127 133 138 175 171 130 158 347 295 336 214 187 89 151 106 99 93 88 94 91 113 116 112 108 98 79
327 321 315 311 314 313 313 309 310 310 311 312 308 9 289 294 223 158 149 130 237 174 149 198 188 180 236 256 130 321 30 132 359 68 65 97 91 106 84 121 122 111 97 87 85
320 317 313 315 318 317 319 316 313 307 306 304 270 232 289 238 204 167 151 202 204 187 236 245 149 126 305 336 225 218 96 74 19 6 143 95 56 83 144 116 103 116 115 101 90
320 320 321 325 324 323 323 319 314 304 291 262 192 199 249 266 123 164 169 296 266 240 201 271 227 282 157 287 346 349 82 97 260 254 239 51 169 113 273 137 107 115 119 107 100
323 324 327 328 324 323 320 319 310 307 190 180 172 213 270 310 148 216 179 219 271 280 240 268 40 228 9 64 356 6 235 112 162 349 109 86 198 218 193 98 127 108 124 121 125
328 329 329 329 324 326 321 312 288 51 176 204 235 331 292 272 200 202 225 220 253 312 345 350 47 17 27 73 232 248 6 281 126 3 63 80 132 249 45 106 142 81 136 126 140
328 331 330 328 324 324 336 360 10 342 17 256 256 279 291 295 243 195 187 175 239 334 231 277 77 230 236 202 230 248 190 283 134 150 108 73 164 297 360 346 92 62 159 140 151
327 330 330 328 322 321 323 33 120 232 300 270 246 247 256 273 300 265 109 150 175 226 336 358 259 244 213 243 247 269 165 118 76 102 82 136 35 342 343 343 44 20 174 150 131
323 327 328 327 319 349 308 274 324 25 298 290 221 202 215 155 217 248 143 196 226 244 242 189 249 325 224 274 269 232 127 187 131 88 76 110 33 332 335 344 59 27 101 66 82
321 324 331 333 30 325 298 295 348 154 353 275 220 252 175 170 272 216 187 164 189 239 224 241 274 259 272 266 170 103 174 127 142 118 181 218 118 257 272 288 8 51 45 52 19
317 320 328 344 284 322 256 326 321 57 345 207 167 199 152 159 253 212 194 157 196 238 97 252 291 292 229 223 127 191 162 109 175 200 115 135 103 273 25 293 277 149 183 41 38
312 316 336 22 267 240 307 304 66 46 263 237 153 159 118 230 266 315 168 151 206 237 221 254 250 234 176 167 167 233 34 41 47 78 54 294 136 183 196 199 140 197 172 145 188
310 308 299 258 240 304 343 24 50 174 298 50 200 152 172 188 235 204 204 162 189 168 303 318 261 208 131 72 356 63 59 357 12 33 154 324 50 275 24 150 148 159 175 107 90
313 308 248 209 223 279 12 36 159 297 292 316 165 154 176 205 245 250 175 212 190 163 319 244 329 178 178 150 173 21 131 147 186 161 167 23 49 345 45 125 148 160 95 92 94
316 321 266 246 207 122 72 52 214 234 354 316 1 135 236 231 194 176 199 203 218 164 187 351 282 84 107 124 121 272 79 175 104 52 79 95 11 34 110 128 143 106 97 99 88
333 324 258 230 142 85 79 241 257 287 323 335 50 191 193 241 158 184 187 216 214 191 159 201 6 18 192 47 23 89 190 43 10 111 112 121 125 156 176 146 101 114 113 109 96
360 335 262 138 104 60 181 241 284 286 321 341 314 303 276 260 193 207 207 324 147 210 94 75 92 309 40 18 163 10 29 60 107 115 139 138 71 189 136 118 118 117 121 132 113
319 303 285 45 78 165 196 224 297 300 308 265 258 260 233 289 181 147 77 1 54 112 85 331 129 69 40 334 91 99 117 109 109 308 69 108 41 105 118 127 128 130 121 101 109
258 257 289 112 174 244 280 285 281 283 274 318 305 216 270 261 149 129 111 351 47 77 136 49 0 69 346 354 4 52 13 102 110 87 80 115 151 130 118 118 122 123 124 119 116
344 308 308 58 174 194 91 268 259 285 270 240 263 304 343 346 1 124 111 32 21 62 110 91 87 135 170 213 129 73 57 51 99 89 112 60 132 149 122 120 133 129 122 114 109
181 252 222 290 286 232 167 293 313 319 297 267 299 218 23 324 11 122 94 116 17 355 62 93 84 68 16 110 100 109 89 75 82 150 118 170 132 165 146 135 132 127 123 117 111
244 16 341 278 266 223 178 219 229 259 255 312 319 313 300 209 186 230 136 133 162 8 60 23 167 63 55 97 94 92 97 89 96 98 89 119 88 128 111 107 109 114 117 112 109
280 319 140 267 296 286 236 222 230 198 290 218 276 317 321 278 209 193 178 139 149 127 94 79 104 77 132 121 86 43 356 96 102 98 135 154 163 151 119 118 126 126 124 120 116